Regional Weather Roundup
Issued by NWS Little Rock, AR

Home | Current Version | Previous Version | Text Only | Print | Product List | Glossary On
Versions: 1 2 3 4 5 6 7 8 9 10 11 12 13 14 15 16 17 18 19 20 21 22 23 24 25 26 27 28 29 30 31 32 33 34 35 36 37 38 39 40 41 42 43 44 45 46 47 48 49 50
000
ASUS44 KLZK 221605
RWRLZK

WEATHER ROUNDUP FOR ARKANSAS
NATIONAL WEATHER SERVICE LITTLE ROCK AR
1000 AM CST SUN JAN 22 2017

NOTE: "FAIR" INDICATES FEW OR NO CLOUDS BELOW 12,000 FEET WITH NO
SIGNIFICANT WEATHER AND/OR OBSTRUCTIONS TO VISIBILITY.

ARZ001-003-010-029-221700-
NORTHWEST ARKANSAS

CITY           SKY/WX    TMP DP  RH WIND       PRES   REMARKS
FAYETTEVILLE   LGT RAIN  50  50 100 N7        29.40R FOG
FORT SMITH     RAIN      52  50  93 CALM      29.41S FOG
HARRISON       LGT RAIN  52  52 100 VRB5      29.42S FOG
BENTONVILLE    CLOUDY   N/A N/A N/A N9        29.44R
ROGERS         LGT RAIN  50  50 100 N9        29.45R
SILOAM SPGS    CLOUDY    50  46  87 N15       29.43R
HIGHFILL       RAIN      50  49  96 N15       29.43R FOG
SPRINGDALE     LGT RAIN  52  52 100 N10       29.43R
$$

ARZ004-005-016-221700-
NORTH CENTRAL ARKANSAS

CITY           SKY/WX    TMP DP  RH WIND       PRES   REMARKS
BATESVILLE     CLOUDY    54  52  94 CALM      29.42F
FLIPPIN        CLOUDY    54  48  82 CALM      29.41R
MTN HOME       LGT RAIN  53  52  96 NE7       29.42R
$$

ARZ040-041-221700-
WEST CENTRAL ARKANSAS

CITY           SKY/WX    TMP DP  RH WIND       PRES   REMARKS
MENA           CLOUDY    54  54 100 W8        29.42R
MOUNT IDA      LGT RAIN  53  51  93 W3        29.38R FOG
$$

ARZ009-017-025-026-028-221700-
NORTHEAST ARKANSAS

CITY           SKY/WX    TMP DP  RH WIND       PRES   REMARKS
CORNING        CLOUDY    54  54 100 N6        29.43S
JONESBORO      CLOUDY    56  54  93 CALM      29.40F
NEWPORT        CLOUDY    55  54  96 CALM      29.42R
WALNUT RIDGE   CLOUDY    55  52  88 N8        29.40F
BLYTHEVILLE    CLOUDY    58  55  90 E6        29.42R
$$

ARZ022-023-033-042-044-221700-
CENTRAL ARKANSAS

CITY           SKY/WX    TMP DP  RH WIND       PRES   REMARKS
LITTLE ROCK    LGT RAIN  54  54 100 CALM      29.39R
N LITTLE ROCK    N/A     54  53  96 CALM      29.39R
JACKSONVILLE   LGT RAIN  55  55  99 SE3       29.38R
SEARCY         RAIN      55  55 100 NE6       29.42R
HOT SPRINGS    CLOUDY    55  52  89 VRB5      29.37R
RUSSELLVILLE   HVY RAIN  52  51  97 NW9       29.39R FOG
$$

ARZ036-221700-
EAST ARKANSAS

CITY           SKY/WX    TMP DP  RH WIND       PRES   REMARKS
WEST MEMPHIS   CLOUDY    56  56 100 CALM      29.38F
$$

ARZ050-053-066-070-073-221700-
SOUTHWEST ARKANSAS

CITY           SKY/WX    TMP DP  RH WIND       PRES   REMARKS
ARKADELPHIA    CLOUDY    54  52  93 W6        29.41R
CAMDEN         CLOUDY    55  48  76 SW6       29.40R
TEXARKANA      PTSUNNY   55  45  68 W14       29.42R
EL DORADO        N/A    N/A N/A N/A MISG      29.40R
DE QUEEN       MOSUNNY   55  52  89 W8        29.41R
$$

ARZ056-057-069-221700-
SOUTHEAST ARKANSAS

CITY           SKY/WX    TMP DP  RH WIND       PRES   REMARKS
PINE BLUFF     CLOUDY    58  55  90 S7        29.39R
STUTTGART      CLOUDY    55  48  76 S14       29.40R
MONTICELLO     CLOUDY    56  51  84 VRB6      29.39S

$$





USA.gov is the U.S. government's official web portal to all federal, state and local government web resources and services.